| time (UTC) | temp F | wind direction | speed MPH | gust MPH | rain 1hr in | rain 24hr in | rain mn in | humidity % | barometer mb |
| 20260505022347 | 60 | 134 | 2.0 | 0.0 | 0.00 | 0.00 | 0.00 | 100 | 1007.8 |
| 20260505021841 | 59 | 164 | 3.0 | 0.0 | 0.00 | 0.00 | 0.00 | 100 | 1007.7 |
| 20260505021335 | 60 | 138 | 3.0 | 0.0 | 0.00 | 0.00 | 0.00 | 100 | 1007.6 |
| 20260505020829 | 59 | 165 | 3.0 | 0.0 | 0.00 | 0.00 | 0.00 | 100 | 1007.6 |
| 20260505020323 | 57 | 188 | 4.0 | 0.0 | 0.00 | 0.00 | 0.00 | 100 | 1007.6 |
| 20260505015817 | 62 | 138 | 1.0 | 0.0 | 0.00 | 0.00 | 0.00 | 100 | 1007.4 |
| 20260505015311 | 61 | 149 | 1.0 | 0.0 | 0.00 | 0.00 | 0.00 | 100 | 1007.4 |
| 20260505014805 | 61 | 142 | 0.0 | 0.0 | 0.00 | 0.00 | 0.00 | 100 | 1007.3 |
| 20260505014259 | 61 | 156 | 0.0 | 0.0 | 0.00 | 0.00 | 0.00 | 100 | 1007.4 |
| 20260505013753 | 62 | 192 | 1.0 | 0.0 | 0.00 | 0.00 | 0.00 | 100 | 1007.4 |
| 20260505013247 | 63 | 123 | 0.0 | 0.0 | 0.00 | 0.00 | 0.00 | 100 | 1007.4 |
| 20260505012741 | 64 | 114 | 1.0 | 0.0 | 0.00 | 0.00 | 0.00 | 100 | 1007.3 |
| 20260505012235 | 64 | 126 | 1.0 | 0.0 | 0.00 | 0.00 | 0.00 | 100 | 1007.3 |
| 20260505011729 | 64 | 132 | 1.0 | 0.0 | 0.00 | 0.00 | 0.00 | 100 | 1007.3 |
| 20260505011223 | 65 | 128 | 0.0 | 0.0 | 0.00 | 0.00 | 0.00 | 100 | 1007.4 |
| 20260505010717 | 66 | 109 | 0.0 | 0.0 | 0.00 | 0.00 | 0.00 | 100 | 1007.5 |
| 20260505010211 | 66 | 66 | 1.0 | 0.0 | 0.00 | 0.00 | 0.00 | 100 | 1007.4 |
| 20260505005705 | 65 | 90 | 0.0 | 0.0 | 0.00 | 0.00 | 0.00 | 100 | 1007.5 |
| 20260505005159 | 65 | 187 | 0.0 | 0.0 | 0.00 | 0.00 | 0.00 | 100 | 1007.6 |
| 20260505004653 | 66 | 251 | 0.0 | 0.0 | 0.00 | 0.00 | 0.00 | 100 | 1007.7 |
| 20260505004147 | 65 | 322 | 2.0 | 0.0 | 0.00 | 0.00 | 0.00 | 100 | 1007.8 |
| 20260505003641 | 66 | 334 | 4.0 | 0.0 | 0.00 | 0.00 | 0.00 | 100 | 1007.8 |
| 20260505003135 | 66 | 309 | 4.0 | 0.0 | 0.00 | 0.00 | 0.00 | 100 | 1007.9 |
| 20260505001053 | 66 | 317 | 4.0 | 0.0 | 0.00 | 0.00 | 0.00 | 100 | 1008.0 |
| 20260505000547 | 65 | 344 | 5.0 | 0.0 | 0.00 | 0.00 | 0.00 | 100 | 1007.9 |
| 20260505000041 | 66 | 337 | 5.0 | 0.0 | 0.00 | 0.00 | 0.00 | 100 | 1008.0 |
| 20260504235535 | 66 | 346 | 7.0 | 0.0 | 0.00 | 0.00 | 0.00 | 100 | 1007.8 |
| 20260504235029 | 67 | 342 | 8.0 | 0.0 | 0.00 | 0.00 | 0.00 | 100 | 1007.7 |
| 20260504234523 | 67 | 340 | 8.0 | 0.0 | 0.00 | 0.00 | 0.00 | 100 | 1007.5 |
| 20260504234017 | 67 | 340 | 8.0 | 0.0 | 0.00 | 0.00 | 0.00 | 100 | 1007.4 |
| 20260504233511 | 67 | 340 | 8.0 | 13.0 | 0.00 | 0.00 | 0.00 | 100 | 1007.3 |
| 20260504233005 | 68 | 346 | 8.0 | 0.0 | 0.00 | 0.00 | 0.00 | 100 | 1007.2 |
| 20260504232459 | 69 | 334 | 6.0 | 17.0 | 0.00 | 0.00 | 0.00 | 100 | 1007.0 |
| 20260504231441 | 75 | 292 | 3.0 | 0.0 | 0.00 | 0.00 | 0.00 | 100 | 1006.6 |
| 20260504230935 | 75 | 311 | 4.0 | 0.0 | 0.00 | 0.00 | 0.00 | 100 | 1006.5 |
| 20260504230429 | 76 | 235 | 2.0 | 0.0 | 0.00 | 0.00 | 0.00 | 100 | 1006.5 |
| 20260504225923 | 77 | 238 | 1.0 | 0.0 | 0.00 | 0.00 | 0.00 | 100 | 1006.5 |
| 20260504225417 | 76 | 249 | 0.0 | 0.0 | 0.00 | 0.00 | 0.00 | 100 | 1006.5 |
| 20260504224911 | 75 | 192 | 0.0 | 0.0 | 0.00 | 0.00 | 0.00 | 100 | 1006.6 |
| 20260504224405 | 75 | 280 | 2.0 | 0.0 | 0.00 | 0.00 | 0.00 | 100 | 1006.6 |
| 20260504223859 | 76 | 274 | 2.0 | 0.0 | 0.00 | 0.00 | 0.00 | 100 | 1006.6 |
| 20260504223353 | 74 | 190 | 2.0 | 0.0 | 0.00 | 0.00 | 0.00 | 100 | 1006.5 |
| 20260504222847 | 74 | 123 | 3.0 | 0.0 | 0.00 | 0.00 | 0.00 | 100 | 1006.5 |
| 20260504222341 | 75 | 141 | 0.0 | 0.0 | 0.00 | 0.00 | 0.00 | 100 | 1006.5 |
| 20260504221835 | 75 | 198 | 0.0 | 0.0 | 0.00 | 0.00 | 0.00 | 100 | 1006.6 |
| 20260504221329 | 75 | 263 | 0.0 | 0.0 | 0.00 | 0.00 | 0.00 | 100 | 1006.7 |
| 20260504220823 | 74 | 183 | 3.0 | 0.0 | 0.00 | 0.00 | 0.00 | 100 | 1006.7 |
| 20260504220317 | 75 | 333 | 1.0 | 0.0 | 0.00 | 0.00 | 0.00 | 100 | 1006.8 |
| 20260504215811 | 75 | 281 | 0.0 | 0.0 | 0.00 | 0.00 | 0.00 | 100 | 1006.9 |
| 20260504215305 | 74 | 314 | 2.0 | 0.0 | 0.00 | 0.00 | 0.00 | 100 | 1007.1 |
| 20260504214759 | 74 | 223 | 3.0 | 0.0 | 0.00 | 0.00 | 0.00 | 100 | 1007.1 |
| 20260504214253 | 74 | 194 | 2.0 | 0.0 | 0.00 | 0.00 | 0.00 | 100 | 1007.2 |
| 20260504213747 | 74 | 220 | 2.0 | 0.0 | 0.00 | 0.00 | 0.00 | 100 | 1007.3 |
| 20260504213241 | 74 | 182 | 5.0 | 0.0 | 0.00 | 0.00 | 0.00 | 100 | 1007.4 |
| 20260504212735 | 74 | 220 | 1.0 | 0.0 | 0.00 | 0.00 | 0.00 | 100 | 1007.4 |
| 20260504212229 | 74 | 167 | 1.0 | 0.0 | 0.00 | 0.00 | 0.00 | 100 | 1007.5 |
| 20260504211723 | 73 | 190 | 5.0 | 0.0 | 0.00 | 0.00 | 0.00 | 100 | 1007.5 |
| 20260504211217 | 73 | 9 | 1.0 | 0.0 | 0.00 | 0.00 | 0.00 | 100 | 1007.5 |
| 20260504210711 | 74 | 127 | 1.0 | 0.0 | 0.00 | 0.00 | 0.00 | 100 | 1007.6 |
| 20260504210205 | 73 | 48 | 3.0 | 0.0 | 0.00 | 0.00 | 0.00 | 100 | 1007.7 |
| 20260504205659 | 74 | 98 | 2.0 | 0.0 | 0.00 | 0.00 | 0.00 | 100 | 1007.7 |
| 20260504205153 | 73 | 305 | 0.0 | 0.0 | 0.00 | 0.00 | 0.00 | 100 | 1007.8 |
| 20260504204647 | 73 | 349 | 3.0 | 0.0 | 0.00 | 0.00 | 0.00 | 100 | 1007.8 |
| 20260504204141 | 73 | 338 | 3.0 | 0.0 | 0.00 | 0.00 | 0.00 | 100 | 1007.8 |
| 20260504203635 | 73 | 11 | 3.0 | 0.0 | 0.00 | 0.00 | 0.00 | 100 | 1007.8 |
| 20260504203129 | 74 | 348 | 6.0 | 0.0 | 0.00 | 0.00 | 0.00 | 100 | 1007.9 |
| 20260504202623 | 73 | 4 | 3.0 | 0.0 | 0.00 | 0.00 | 0.00 | 100 | 1007.8 |
| 20260504202117 | 74 | 334 | 2.0 | 0.0 | 0.00 | 0.00 | 0.00 | 100 | 1007.9 |
| 20260504201611 | 74 | 323 | 0.0 | 0.0 | 0.00 | 0.00 | 0.00 | 100 | 1007.9 |
| 20260504201105 | 73 | 286 | 2.0 | 0.0 | 0.00 | 0.00 | 0.00 | 100 | 1008.1 |
| 20260504200559 | 73 | 312 | 2.0 | 0.0 | 0.00 | 0.00 | 0.00 | 100 | 1008.1 |
| 20260504200053 | 73 | 337 | 6.0 | 0.0 | 0.00 | 0.00 | 0.00 | 100 | 1008.1 |
| 20260504195547 | 74 | 305 | 1.0 | 0.0 | 0.00 | 0.00 | 0.00 | 100 | 1008.1 |
| 20260504195041 | 72 | 338 | 2.0 | 0.0 | 0.00 | 0.00 | 0.00 | 100 | 1008.2 |
| 20260504194535 | 73 | 320 | 4.0 | 0.0 | 0.00 | 0.00 | 0.00 | 100 | 1008.3 |
| 20260504194029 | 72 | 346 | 2.0 | 0.0 | 0.00 | 0.00 | 0.00 | 100 | 1008.3 |
| 20260504193523 | 71 | 184 | 3.0 | 0.0 | 0.00 | 0.00 | 0.00 | 100 | 1008.4 |
| 20260504193017 | 72 | 34 | 2.0 | 0.0 | 0.00 | 0.00 | 0.00 | 100 | 1008.5 |
| 20260504192511 | 71 | 349 | 5.0 | 0.0 | 0.00 | 0.00 | 0.00 | 100 | 1008.5 |
| 20260504192005 | 72 | 321 | 2.0 | 0.0 | 0.00 | 0.00 | 0.00 | 100 | 1008.6 |
| 20260504191459 | 72 | 292 | 1.0 | 0.0 | 0.00 | 0.00 | 0.00 | 100 | 1008.7 |
| 20260504190953 | 72 | 327 | 3.0 | 0.0 | 0.00 | 0.00 | 0.00 | 100 | 1008.7 |
| 20260504190447 | 71 | 331 | 2.0 | 0.0 | 0.00 | 0.00 | 0.00 | 100 | 1008.8 |
| 20260504185941 | 71 | 297 | 3.0 | 0.0 | 0.00 | 0.00 | 0.00 | 100 | 1008.9 |
| 20260504185435 | 71 | 324 | 2.0 | 0.0 | 0.00 | 0.00 | 0.00 | 100 | 1009.0 |
| 20260504184929 | 70 | 328 | 5.0 | 0.0 | 0.00 | 0.00 | 0.00 | 100 | 1009.2 |
| 20260504184423 | 70 | 314 | 0.0 | 0.0 | 0.00 | 0.00 | 0.00 | 100 | 1009.2 |
| 20260504183917 | 70 | 331 | 4.0 | 0.0 | 0.00 | 0.00 | 0.00 | 100 | 1009.3 |
| 20260504183411 | 69 | 336 | 3.0 | 0.0 | 0.00 | 0.00 | 0.00 | 100 | 1009.4 |
| 20260504182905 | 69 | 355 | 4.0 | 0.0 | 0.00 | 0.00 | 0.00 | 100 | 1009.4 |
| 20260504182359 | 69 | 340 | 2.0 | 0.0 | 0.00 | 0.00 | 0.00 | 100 | 1009.5 |
| 20260504181853 | 68 | 28 | 1.0 | 0.0 | 0.00 | 0.00 | 0.00 | 100 | 1009.5 |
| 20260504181347 | 69 | 357 | 4.0 | 0.0 | 0.00 | 0.00 | 0.00 | 100 | 1009.7 |
| 20260504180841 | 69 | 323 | 1.0 | 0.0 | 0.00 | 0.00 | 0.00 | 100 | 1009.8 |
| 20260504180335 | 68 | 306 | 1.0 | 0.0 | 0.00 | 0.00 | 0.00 | 100 | 1009.9 |
| 20260504175829 | 67 | 336 | 2.0 | 0.0 | 0.00 | 0.00 | 0.00 | 100 | 1010.0 |
| 20260504175323 | 66 | 350 | 4.0 | 0.0 | 0.00 | 0.00 | 0.00 | 100 | 1010.0 |
| 20260504174817 | 66 | 346 | 2.0 | 0.0 | 0.00 | 0.00 | 0.00 | 100 | 1010.1 |
| 20260504174311 | 66 | 337 | 2.0 | 0.0 | 0.00 | 0.00 | 0.00 | 100 | 1010.2 |
| 20260504173805 | 66 | 343 | 2.0 | 0.0 | 0.00 | 0.00 | 0.00 | 100 | 1010.2 |
| 20260504173259 | 65 | 25 | 2.0 | 0.0 | 0.00 | 0.00 | 0.00 | 100 | 1010.2 |
| 20260504172753 | 64 | 341 | 4.0 | 0.0 | 0.00 | 0.00 | 0.00 | 100 | 1010.3 |
| 20260504172247 | 65 | 331 | 2.0 | 0.0 | 0.00 | 0.00 | 0.00 | 100 | 1010.3 |
| 20260504171741 | 66 | 6 | 1.0 | 0.0 | 0.00 | 0.00 | 0.00 | 100 | 1010.3 |
| 20260504171235 | 64 | 352 | 0.0 | 0.0 | 0.00 | 0.00 | 0.00 | 100 | 1010.4 |
| 20260504170729 | 63 | 342 | 3.0 | 0.0 | 0.00 | 0.00 | 0.00 | 100 | 1010.5 |
| 20260504170223 | 63 | 343 | 2.0 | 0.0 | 0.00 | 0.00 | 0.00 | 100 | 1010.5 |
| 20260504160111 | 58 | 0 | 3.0 | 0.0 | 0.00 | 0.00 | 0.00 | 100 | 1010.8 |
| 20260504151011 | 53 | 143 | 1.0 | 0.0 | 0.00 | 0.00 | 0.00 | 100 | 1011.2 |
| 20260504150505 | 53 | 176 | 1.0 | 0.0 | 0.00 | 0.00 | 0.00 | 100 | 1011.4 |
| 20260504140859 | 49 | 288 | 0.0 | 0.0 | 0.00 | 0.00 | 0.00 | 100 | 1012.3 |
| 20260504140353 | 47 | 260 | 0.0 | 0.0 | 0.00 | 0.00 | 0.00 | 100 | 1012.3 |
| 20260504130747 | 39 | 187 | 2.0 | 0.0 | 0.00 | 0.00 | 0.00 | 100 | 1013.0 |
| 20260504130241 | 40 | 215 | 0.0 | 0.0 | 0.00 | 0.00 | 0.00 | 100 | 1013.0 |
| 20260504120129 | 41 | 27 | 2.0 | 0.0 | 0.00 | 0.00 | 0.00 | 100 | 1012.5 |
| 20260504110523 | 43 | 107 | 0.0 | 0.0 | 0.00 | 0.00 | 0.00 | 100 | 1012.8 |
| 20260504100411 | 44 | 315 | 3.0 | 0.0 | 0.00 | 0.00 | 0.00 | 100 | 1012.2 |
| 20260504081705 | 54 | 142 | 7.0 | 14.0 | 0.00 | 0.00 | 0.00 | 100 | 1011.5 |
| 20260504081159 | 54 | 139 | 7.0 | 17.0 | 0.00 | 0.00 | 0.00 | 100 | 1011.6 |
| 20260504080653 | 54 | 150 | 6.0 | 17.0 | 0.00 | 0.00 | 0.00 | 100 | 1011.6 |
| 20260504080147 | 55 | 167 | 12.0 | 17.0 | 0.00 | 0.00 | 0.00 | 100 | 1011.6 |
| 20260504050317 | 52 | 162 | 4.0 | 0.0 | 0.00 | 0.00 | 0.00 | 100 | 1012.5 |
| 20260504045811 | 50 | 167 | 4.0 | 0.0 | 0.00 | 0.00 | 0.00 | 100 | 1012.5 |
| 20260504045305 | 49 | 188 | 4.0 | 0.0 | 0.00 | 0.00 | 0.00 | 100 | 1012.5 |
| 20260504044759 | 52 | 160 | 2.0 | 0.0 | 0.00 | 0.00 | 0.00 | 100 | 1012.5 |
| 20260504044253 | 52 | 163 | 4.0 | 0.0 | 0.00 | 0.00 | 0.00 | 100 | 1012.5 |
| 20260504043747 | 50 | 169 | 3.0 | 0.0 | 0.00 | 0.00 | 0.00 | 100 | 1012.5 |
| 20260504043241 | 50 | 200 | 2.0 | 0.0 | 0.00 | 0.00 | 0.00 | 100 | 1012.5 |
| 20260504042735 | 51 | 196 | 1.0 | 0.0 | 0.00 | 0.00 | 0.00 | 100 | 1012.4 |
| 20260504042229 | 51 | 208 | 0.0 | 0.0 | 0.00 | 0.00 | 0.00 | 100 | 1012.4 |
| 20260504041723 | 51 | 188 | 2.0 | 0.0 | 0.00 | 0.00 | 0.00 | 100 | 1012.3 |
| 20260504041217 | 53 | 189 | 4.0 | 0.0 | 0.00 | 0.00 | 0.00 | 100 | 1012.3 |
| 20260504040711 | 54 | 262 | 2.0 | 0.0 | 0.00 | 0.00 | 0.00 | 100 | 1012.3 |
| 20260504040205 | 56 | 223 | 0.0 | 0.0 | 0.00 | 0.00 | 0.00 | 100 | 1012.2 |
| 20260504035659 | 56 | 168 | 0.0 | 0.0 | 0.00 | 0.00 | 0.00 | 100 | 1012.1 |
| 20260504035153 | 55 | 170 | 3.0 | 0.0 | 0.00 | 0.00 | 0.00 | 100 | 1012.1 |
| 20260504034647 | 56 | 164 | 4.0 | 0.0 | 0.00 | 0.00 | 0.00 | 100 | 1012.0 |
| 20260504034141 | 58 | 139 | 4.0 | 0.0 | 0.00 | 0.00 | 0.00 | 100 | 1012.0 |
| 20260504033635 | 57 | 131 | 1.0 | 0.0 | 0.00 | 0.00 | 0.00 | 100 | 1011.9 |
| 20260504033129 | 58 | 156 | 2.0 | 0.0 | 0.00 | 0.00 | 0.00 | 100 | 1011.8 |
| 20260504032623 | 58 | 159 | 4.0 | 0.0 | 0.00 | 0.00 | 0.00 | 100 | 1011.8 |
| 20260504032117 | 58 | 156 | 2.0 | 0.0 | 0.00 | 0.00 | 0.00 | 100 | 1011.8 |
| 20260504031611 | 59 | 130 | 0.0 | 0.0 | 0.00 | 0.00 | 0.00 | 100 | 1011.8 |
| 20260504031105 | 58 | 7 | 0.0 | 0.0 | 0.00 | 0.00 | 0.00 | 100 | 1011.7 |
| 20260504030559 | 58 | 147 | 0.0 | 0.0 | 0.00 | 0.00 | 0.00 | 100 | 1011.6 |
| 20260504030053 | 58 | 127 | 0.0 | 0.0 | 0.00 | 0.00 | 0.00 | 100 | 1011.5 |
| 20260504025547 | 56 | 173 | 2.0 | 0.0 | 0.00 | 0.00 | 0.00 | 100 | 1011.5 |
| 20260504025041 | 57 | 175 | 2.0 | 0.0 | 0.00 | 0.00 | 0.00 | 100 | 1011.4 |
| 20260504024535 | 57 | 169 | 2.0 | 0.0 | 0.00 | 0.00 | 0.00 | 100 | 1011.4 |
| 20260504024029 | 59 | 189 | 2.0 | 0.0 | 0.00 | 0.00 | 0.00 | 100 | 1011.3 |
| 20260504023523 | 60 | 184 | 2.0 | 0.0 | 0.00 | 0.00 | 0.00 | 100 | 1011.2 |
| 20260504023017 | 60 | 169 | 0.0 | 0.0 | 0.00 | 0.00 | 0.00 | 100 | 1011.2 |